Probability
0 0 0 1 1 1 0 0 0 0 0 0 0 1 3 3 3 3 3 4 6 11 18 21 18 14 10 8 6 6 8 9 8 6 3 1 0 0 0 0 0 1 2 2 1 0 0 0 0
0 0 0 0 0 0 0 0 0 0 0 0 1 2 3 3 3 3 3 3 5 9 16 20 20 16 12 9 7 6 7 9 9 7 5 2 0 1 1 0 0 0 1 1 0 0 0 0 0
0 0 0 0 0 0 0 0 0 0 0 0 2 3 3 3 3 3 4 4 4 8 13 19 22 19 14 11 9 6 6 8 9 8 7 3 1 1 1 0 0 0 0 0 0 0 0 0 0
0 0 0 0 0 0 0 0 0 0 0 0 1 3 4 4 4 4 5 5 4 6 12 19 23 21 17 14 11 8 7 9 11 11 8 4 1 1 1 1 1 0 0 0 0 0 0 0 0
0 0 0 0 0 0 0 0 0 0 0 0 1 3 5 5 5 6 6 6 5 7 11 17 21 20 17 15 13 11 11 12 13 12 10 7 4 3 3 3 2 1 1 0 0 0 0 0 0
0 0 0 0 0 0 0 0 0 0 0 0 1 3 5 6 6 6 6 6 7 9 12 16 18 17 15 14 14 13 13 14 15 14 12 11 9 7 6 5 4 3 2 1 1 1 0 0 0
0 0 0 0 0 0 0 0 0 0 0 0 1 2 5 7 7 6 6 7 8 10 12 15 15 14 13 13 13 13 13 14 15 14 12 11 9 7 7 6 5 4 3 3 2 2 1 1 1
0 0 0 0 0 0 0 0 0 0 1 1 1 2 7 9 8 8 8 8 8 9 10 12 13 12 12 12 12 12 12 13 13 12 10 8 6 5 5 4 4 3 2 2 2 2 2 2 2
0 0 0 0 0 0 0 0 0 1 2 2 3 5 10 13 12 10 11 9 8 8 9 10 10 11 11 11 11 11 11 11 11 10 8 5 3 3 3 3 3 2 1 1 1 1 1 1 1
0 0 0 0 0 0 0 0 0 1 3 3 5 8 13 15 14 13 13 12 10 9 8 8 9 10 10 9 9 8 9 9 8 8 6 4 3 2 1 3 4 2 0 0 0 0 0 0 0
0 0 0 0 0 0 0 0 0 1 3 4 7 11 15 16 15 14 14 13 12 10 8 8 9 10 9 7 6 6 7 7 6 5 5 5 4 3 2 3 5 4 2 1 1 0 0 0 0
0 0 0 0 0 0 0 0 0 1 3 5 9 13 16 17 16 14 12 10 12 12 11 10 12 11 10 8 6 5 6 6 6 5 5 6 5 4 3 4 6 5 5 4 2 1 0 0 1
0 0 0 0 0 0 0 0 0 1 3 6 9 12 14 14 14 13 11 10 13 16 15 15 14 14 13 12 9 8 7 6 6 7 7 6 6 5 5 7 8 8 7 6 4 2 1 1 2
0 0 0 0 0 0 0 0 0 1 3 5 8 9 10 10 11 11 12 13 16 18 18 18 16 16 16 16 14 11 8 7 6 6 6 7 9 8 8 9 10 10 9 9 7 6 4 4 4
0 0 0 0 0 0 0 0 0 0 2 4 5 7 10 11 11 12 13 15 16 18 20 19 17 17 18 18 17 14 11 10 7 5 5 7 10 11 12 12 11 11 12 13 13 11 8 7 7
0 0 0 0 0 0 0 0 0 0 0 1 2 6 10 13 13 13 13 12 13 17 20 20 18 18 19 19 19 17 15 13 10 8 8 9 11 14 16 16 14 14 15 17 17 15 12 10 10
0 0 0 0 0 0 0 0 0 0 0 0 1 5 9 12 13 13 11 10 13 18 23 23 22 21 21 22 22 20 17 14 12 12 13 14 14 16 18 18 18 17 17 18 18 17 15 14 13
0 0 0 0 0 0 0 0 0 0 0 1 2 4 8 12 13 12 11 12 15 22 26 27 26 25 25 25 24 22 18 14 12 13 15 17 17 18 19 19 20 21 19 18 18 18 18 17 15
0 0 0 0 0 0 0 0 0 0 1 3 4 7 11 14 14 15 16 15 18 25 30 30 29 29 28 26 24 23 19 15 13 13 15 17 18 20 20 20 21 23 22 19 19 19 19 17 16
0 0 0 0 0 0 0 0 1 1 2 5 8 10 14 17 19 22 23 20 19 25 29 29 30 31 29 26 24 23 20 16 14 14 16 18 20 21 22 21 21 22 22 21 21 20 18 16 16
0 0 0 0 0 0 0 1 2 1 2 4 8 12 15 18 22 27 27 23 20 22 25 27 27 29 29 27 24 23 21 16 14 14 17 19 19 20 21 21 22 21 20 20 20 19 17 15 16
0 0 0 0 0 0 0 1 2 2 1 3 6 10 13 15 20 24 26 25 22 20 22 26 27 27 29 29 26 24 21 17 14 14 17 19 18 17 18 21 24 23 20 18 17 16 16 15 14
0 0 0 0 0 1 1 2 3 2 1 2 5 8 10 11 14 16 20 23 23 20 22 27 30 29 28 29 28 26 22 19 15 13 16 20 20 18 18 20 24 24 22 19 17 18 18 15 13
0 0 0 0 0 1 2 3 3 2 1 2 5 6 7 7 9 10 13 18 21 21 22 27 31 32 29 28 28 26 23 21 17 14 16 21 23 21 19 19 22 24 24 23 21 20 19 16 14
0 0 0 0 0 1 2 3 3 2 2 4 5 6 5 6 6 7 10 16 20 22 23 26 31 34 33 28 26 25 24 22 19 16 17 20 23 22 20 19 20 22 24 24 23 21 19 17 16
0 0 0 0 0 1 3 4 4 4 4 6 7 6 5 4 5 5 7 15 22 25 24 25 29 33 32 28 25 25 24 21 19 17 16 17 19 19 18 18 19 20 21 22 23 22 20 18 17
0 0 0 0 0 1 2 4 4 5 6 7 7 6 4 3 3 3 4 11 20 24 23 23 26 29 29 27 23 20 20 20 19 18 16 16 17 16 16 17 17 19 20 20 21 22 21 20 19
0 0 0 0 0 0 1 3 4 5 7 8 7 6 5 4 3 3 4 7 13 18 19 19 22 26 28 26 21 18 19 21 23 21 18 17 17 16 15 14 15 17 18 19 20 21 20 19 18
0 0 0 0 0 0 0 2 5 8 9 9 7 6 6 5 4 5 5 6 9 13 14 17 21 25 25 25 24 22 23 25 26 25 22 21 20 17 14 12 12 13 15 17 18 17 16 15 16
0 0 0 0 0 0 0 2 8 11 10 9 8 7 5 5 5 6 7 8 9 11 13 17 22 23 23 25 26 25 26 28 27 26 25 24 22 17 13 11 10 11 13 15 15 14 12 12 14
Wind_Speed
11 9 7 6 8 3 4 5 3 4 4 4 3 2 4 6 7 7 7 9 10 13 14 15 11 10 10 9 9 9 10 9 9 9 8 9 9 9 9 9 9 9 9 9 10 10 11 11 11
8 6 7 8 6 1 5 4 4 6 5 2 1 1 2 5 6 7 8 10 11 13 13 13 13 11 10 10 9 10 10 10 9 9 9 9 9 9 8 9 9 9 8 8 8 9 10 10 10
6 7 7 6 2 2 4 4 4 3 2 0 1 1 3 5 5 6 8 12 12 12 12 14 13 11 11 10 10 10 10 10 10 9 9 8 8 9 8 8 8 8 8 7 7 8 8 8 8
6 7 7 6 1 3 4 3 3 2 0 1 1 3 5 5 4 7 12 12 13 12 12 15 12 12 11 10 10 10 10 9 9 9 9 8 8 8 8 7 8 7 7 7 7 7 7 7 7
7 7 6 4 1 2 3 3 3 2 1 0 1 2 6 5 7 10 12 12 12 12 11 15 12 11 11 10 10 10 10 9 9 8 8 8 8 8 7 7 7 7 6 7 6 6 7 7 7
6 6 6 3 1 1 1 2 2 2 1 0 1 2 5 6 8 10 12 11 11 11 11 14 13 11 11 10 10 10 10 9 9 8 8 8 7 7 7 7 6 6 6 6 6 6 6 6 6
7 6 5 4 2 1 2 2 2 3 1 1 1 2 6 7 8 10 11 11 11 11 11 11 13 12 11 10 9 9 9 9 8 8 8 8 7 7 6 6 6 6 6 6 5 5 5 5 5
7 7 7 5 3 1 2 1 2 4 3 2 2 2 5 10 10 11 11 11 11 10 10 10 10 11 11 11 11 9 9 9 8 8 7 7 8 7 6 7 6 6 6 6 5 5 5 4 4
8 9 7 4 4 1 1 3 2 2 1 1 1 3 5 13 13 12 11 11 10 9 9 9 9 9 8 9 11 10 10 9 8 9 8 7 6 6 6 5 6 6 5 5 5 4 4 4 6
8 9 7 4 5 5 4 4 3 3 4 3 3 5 9 12 13 13 13 12 12 11 10 9 8 8 7 6 7 6 7 8 6 5 6 5 3 3 4 8 6 5 5 5 4 4 5 6 5
9 10 7 5 5 6 7 6 4 6 5 2 1 6 9 12 12 12 12 11 11 11 10 9 9 8 7 5 5 4 4 5 5 5 5 3 3 3 3 4 6 5 6 4 6 6 3 2 1
9 9 8 8 6 8 8 7 6 5 6 4 2 5 9 11 12 11 11 10 10 11 10 9 9 8 7 5 5 5 4 4 4 5 5 4 3 3 2 2 3 3 3 2 2 1 1 1 1
11 9 8 8 8 8 8 8 7 5 4 2 2 6 7 9 9 9 9 9 10 10 10 9 9 8 7 6 5 5 4 4 4 4 4 4 3 3 3 2 2 2 2 3 2 2 2 2 2
7 9 9 8 8 7 8 8 6 4 2 2 4 6 7 7 8 9 9 9 9 9 9 9 9 9 8 7 5 5 5 4 4 4 5 5 3 3 3 3 3 2 3 2 2 2 2 2 1
8 10 10 8 7 5 7 8 6 2 3 3 4 5 6 6 7 8 8 8 9 9 8 9 9 9 8 8 7 5 5 5 4 4 5 5 5 4 3 3 4 3 3 3 3 3 2 2 3
10 11 10 6 5 5 9 7 2 2 3 3 4 5 5 5 6 6 7 7 8 8 8 8 8 9 9 7 6 5 5 4 4 4 5 6 5 5 4 4 4 3 4 3 3 3 3 2 3
11 10 9 5 4 4 8 7 2 2 3 3 4 4 5 6 5 5 6 7 8 8 8 8 8 9 8 8 6 5 4 4 4 4 4 5 6 6 5 4 3 4 4 3 3 3 3 3 3
8 9 8 7 3 5 8 6 3 2 3 3 4 4 4 5 5 5 6 7 7 7 8 8 8 8 7 7 6 5 5 5 4 4 4 6 5 6 5 4 5 5 4 3 3 3 3 3 3
9 9 9 6 3 6 7 6 3 2 3 4 4 4 4 4 4 4 5 6 6 7 7 8 8 7 6 5 6 6 5 5 4 4 5 6 6 6 5 4 4 5 4 4 4 4 5 4 3
11 11 9 6 3 6 7 6 4 2 3 3 3 3 4 4 5 5 5 5 6 6 7 7 7 7 7 6 5 5 4 4 4 4 4 6 6 6 6 5 5 5 3 4 4 4 4 3 3
12 12 9 7 4 8 8 9 7 4 3 3 3 3 3 4 5 5 5 5 6 6 6 6 7 7 7 6 5 4 4 4 5 5 5 6 6 6 5 5 5 4 5 4 4 4 5 4 3
11 9 10 9 10 8 8 8 6 6 4 4 4 3 3 4 5 5 5 5 5 5 6 6 6 6 7 7 7 7 6 5 5 4 5 6 6 6 6 6 6 5 4 4 5 5 4 4 4
9 6 9 11 11 11 9 10 5 6 5 4 4 3 3 4 4 5 4 5 5 4 5 6 6 6 7 7 6 7 6 4 4 5 5 6 6 7 6 6 5 5 5 5 4 4 5 4 4
7 7 9 11 11 13 10 10 6 4 5 4 4 3 3 3 4 4 4 4 4 4 4 5 6 6 6 6 6 6 6 5 5 5 5 5 5 6 7 7 6 6 5 5 5 5 6 4 4
10 9 8 10 10 9 6 8 4 2 2 3 3 3 3 3 3 3 3 4 4 4 4 5 6 5 5 6 6 6 6 6 6 5 5 5 4 4 6 6 6 5 5 5 5 5 5 5 5
11 13 9 8 9 7 6 8 3 3 2 3 3 4 4 3 3 2 2 3 3 4 4 4 5 5 5 5 5 5 6 5 4 4 4 4 3 3 4 5 5 6 6 6 5 5 5 4 5
13 12 10 11 10 9 6 5 5 5 4 4 4 4 4 3 3 2 2 3 2 3 3 4 4 5 6 6 5 5 5 4 4 4 4 4 3 3 4 5 5 5 5 5 5 4 5 5 5
11 9 8 10 9 10 9 9 6 7 6 6 5 4 4 4 4 3 3 2 2 2 3 3 3 4 4 5 5 5 5 5 4 4 4 4 3 3 4 5 5 5 6 6 6 5 5 5 5
11 12 10 10 10 9 8 3 3 3 4 5 5 4 4 3 4 4 3 2 2 2 2 3 3 3 3 4 4 4 5 5 5 4 4 4 4 4 5 5 5 5 5 6 6 6 6 6 5
11 11 11 10 9 10 10 0 6 3 4 4 4 4 3 3 4 4 3 3 2 2 1 2 2 3 3 3 4 5 4 5 5 5 4 4 4 5 5 5 5 5 5 5 6 7 6 6 6
Wind_Direction
181 195 222 237 237 216 82 79 50 54 48 38 22 4 11 15 10 45 87 129 134 138 137 146 146 146 144 141 137 133 131 128 126 122 119 117 116 112 112 110 110 114 118 120 122 123 123 126 127
187 204 232 241 259 147 88 67 53 40 43 42 71 56 50 63 56 88 119 132 143 140 143 145 142 148 146 144 141 136 133 130 126 123 119 116 114 113 111 111 109 110 115 118 122 126 127 131 134
205 233 258 253 284 7 63 63 42 32 54 206 114 53 37 60 87 106 122 143 148 144 142 133 148 150 149 147 146 142 137 133 128 123 121 116 115 115 113 112 111 111 113 116 119 124 128 134 139
227 227 237 252 233 40 14 19 359 328 102 174 193 113 88 56 82 112 133 150 149 146 143 136 154 151 150 149 146 143 140 137 132 125 120 115 113 113 113 112 109 108 110 114 116 123 128 133 138
242 255 242 228 206 62 18 359 321 300 4 134 234 113 100 83 99 124 143 151 151 146 143 138 151 152 152 150 147 146 144 141 135 130 125 118 114 112 111 109 108 105 107 109 114 120 125 130 134
243 249 253 248 151 93 47 351 293 294 8 122 192 133 98 117 129 139 147 153 149 147 143 138 150 154 153 152 149 147 147 145 140 135 129 122 118 116 115 113 111 108 106 108 109 115 122 128 134
267 267 268 275 280 180 37 348 311 310 322 29 248 153 129 138 133 143 147 150 149 151 148 149 156 159 159 156 153 150 148 146 143 138 134 129 125 123 123 117 112 111 108 107 109 115 121 131 140
273 266 253 254 267 273 59 334 331 321 353 31 258 230 132 140 143 147 149 152 154 156 154 157 160 158 165 161 156 155 152 150 148 144 143 143 144 142 142 142 122 119 116 114 112 113 116 128 144
252 253 253 261 273 296 357 293 333 312 247 179 352 20 89 136 149 155 156 159 158 162 163 163 160 159 166 158 152 163 163 160 164 161 158 176 171 154 160 122 121 127 125 122 120 123 134 157 161
239 253 262 287 289 299 303 297 310 260 238 197 147 112 130 149 162 168 168 169 167 170 170 167 166 163 165 158 155 169 172 163 178 162 169 183 162 158 142 122 128 133 138 143 140 155 185 212 171
238 255 272 271 280 290 287 288 285 272 271 276 215 152 156 164 174 179 177 175 170 171 171 171 169 168 168 165 165 167 168 163 175 171 179 177 174 163 162 152 153 159 173 165 158 189 193 183 143
243 252 268 275 282 278 279 280 277 274 288 326 301 168 172 178 183 186 182 178 171 171 173 172 168 171 176 171 170 173 174 169 172 172 193 182 182 178 163 169 161 167 168 160 177 176 144 163 227
237 250 258 266 268 270 269 265 269 271 283 282 180 172 183 185 185 183 182 177 174 174 174 174 174 170 173 177 186 175 179 175 168 183 190 205 194 185 171 166 180 190 166 175 186 169 158 198 215
253 259 260 259 255 248 256 259 245 258 245 197 176 180 184 186 184 177 178 177 178 176 176 172 178 173 177 180 185 181 179 179 185 188 188 206 203 185 189 183 191 192 189 182 199 181 193 216 221
251 252 245 236 241 237 250 245 227 241 234 209 190 183 183 184 184 183 181 180 179 177 176 175 179 176 182 184 187 185 184 189 191 185 191 201 204 190 198 193 199 195 189 186 202 199 213 219 220
228 238 241 218 228 223 247 253 181 203 228 218 193 178 180 181 188 180 180 183 179 177 174 179 180 178 183 189 194 192 189 189 196 194 193 199 207 205 211 206 203 198 204 204 199 220 221 221 236
217 236 242 222 202 231 247 262 267 222 223 214 190 179 179 174 183 175 178 179 176 176 176 180 182 181 185 188 190 199 192 198 201 199 197 194 206 210 215 216 206 212 212 215 221 199 233 228 242
230 242 242 245 206 242 248 254 261 241 216 205 189 181 180 174 181 173 172 172 171 172 175 178 180 181 184 186 189 199 200 201 204 205 200 201 201 207 220 211 208 218 217 216 222 220 226 241 243
261 256 252 249 237 255 249 252 255 228 218 202 195 186 179 168 158 152 154 159 163 169 175 181 184 180 185 188 198 198 199 202 206 209 201 206 205 202 217 222 201 221 217 223 222 226 215 223 230
248 247 248 241 212 258 254 252 246 223 226 215 208 198 186 170 154 147 149 155 163 169 175 179 185 182 190 190 200 201 200 202 206 209 204 214 209 207 210 222 216 209 209 211 222 227 239 224 219
237 246 252 258 241 234 247 239 221 199 204 201 205 203 188 182 166 157 158 160 163 168 177 182 185 183 192 186 190 188 190 201 197 201 199 207 209 209 219 216 227 213 216 199 209 218 233 233 217
237 240 254 249 245 237 233 258 213 197 193 198 204 197 187 174 168 163 163 165 171 173 171 175 178 181 184 189 197 195 201 206 203 202 196 196 202 207 209 213 213 219 219 206 213 206 227 237 230
248 243 243 245 249 256 237 258 227 196 212 208 204 198 190 179 168 165 167 167 166 164 165 166 169 178 182 191 195 203 214 212 200 196 194 201 197 204 208 210 208 210 220 214 220 206 229 229 240
233 231 230 236 242 245 241 252 245 199 223 218 185 174 167 169 159 160 160 161 159 161 165 165 168 179 182 186 192 199 208 209 206 200 192 201 197 200 204 207 208 210 216 215 218 217 218 234 240
214 224 222 222 227 240 218 241 248 159 205 200 172 157 139 143 147 153 161 161 162 165 167 169 172 179 182 189 198 203 206 206 206 204 199 206 202 197 200 207 209 212 212 215 216 215 226 224 227
214 228 241 247 246 241 207 233 202 136 144 153 146 131 119 120 123 142 156 160 168 170 174 176 177 183 185 194 201 205 207 211 209 207 216 208 214 207 193 204 206 213 212 212 211 218 217 220 227
216 224 246 265 266 255 218 202 188 169 163 151 141 133 124 111 109 120 131 148 167 172 178 187 184 184 193 197 196 196 200 210 212 204 214 213 205 199 193 200 206 210 213 218 215 220 218 219 226
232 222 229 243 250 250 234 221 213 177 176 163 155 143 124 107 92 87 98 128 154 160 165 175 182 190 197 197 201 195 197 200 203 210 211 213 207 205 199 205 208 211 214 219 224 223 218 222 229
210 216 227 240 251 259 255 223 90 156 167 167 156 138 120 102 90 83 78 90 116 131 151 165 175 186 196 201 199 199 196 197 198 199 202 201 204 201 202 207 208 210 215 217 218 228 222 224 232
225 224 223 234 238 250 269 168 87 102 137 149 145 130 116 96 88 85 76 67 76 90 127 159 175 193 196 198 199 200 197 195 199 198 198 196 199 202 204 207 210 213 215 218 219 224 226 228 233